Location: Newark
(35.0033°N, 81.0878°W)
Time: 15:15:09
(UTC+00:00)

Envisat - Visible Passes

Search period start: 20 August 2019 00:00
Search period end: 30 August 2019 00:00
Orbit: 764 x 766 km, 98.1° (Epoch: 20 August)

Date Brightness Start Highest point End Pass type
(mag) Time Alt. Az. Time Alt. Az. Time Alt. Az.
21 Aug 6.3 01:17:17 10° W 01:18:01 10° W 01:18:45 10° W visible
22 Aug 5.4 00:36:46 10° SSW 00:40:56 26° W 00:45:09 10° NW visible
24 Aug 5.9 01:04:05 10° WSW 01:06:39 14° W 01:09:14 10° WNW visible
25 Aug 4.9 00:25:05 10° SSW 00:29:38 33° W 00:34:12 10° NNW visible
27 Aug 5.8 00:51:52 10° SW 00:55:19 18° W 00:58:45 10° NW visible
28 Aug 4.4 00:13:33 10° S 00:18:21 43° W 00:23:10 10° NNW visible
